Main page
METAR-TAF:

METAR-TAF

Airports :

Karaj, Iran

Payam International Airport

latitude: 35-46-34N, longitude: 050-49-36E, elevation: 1271 m

Current weather observation

The report was made 25 minutes ago, at 16:00 UTC
Calm wind
Temperature 7°C
Humidity 26%
Pressure 1022 hPa
Visibility: 8000 m

METAR: OIIP 181600Z 00000KT 8000 NSC 07/M11 Q1022

Time: 19:55 (16:25 UTC)


TAF: missing

Weather observations and forecasts of more than 4000 airports (METAR and TAF reports).

The available stations are represented by yellow and red dots on the map.

Hover mouse over dot to see the name of the station.

Then click to see weather observations and forecasts.

To change the map : click on the green buttons with a black cross to zoom in, on the green button with a dash to zoom out, or on the green arrows for adjacent maps.


METAR-TAF: